Aérodrome :
LOGIN :

S'inscrire | Disclaimer

   EN    FR    IT 

 










Légende :    VFR   VFR Marginal   IFR   IFR Intensif   IFR Très Intensif
Visi : 
Plafond : 
>= 8 km
>= 3000ft
5 à 8 km
1000 à 3000 ft
1500m à 5 km
500 à 1000 ft
800 à 1500m
200 à 500 ft
< 800m
< 200 ft
Symboles :   Orages  Brouillard  Fortes neiges  Fortes précipitations  Vent > 20 kt
SIGMETs :   Divers  Orages  Givrage  Turbulence  Onde Orograph.  Cendres Volcan.






- Altitude de l'aérodrome : 961 ft
- Code IATA : VIN


UKWW - Gavryshivka

DERNIER METAR :
  • 161300Z 00000MPS 9999 SCT043 23/12 Q1013 R13/0///65 NOSIG

METARs EXPIRÉS :
  • 161230Z 00000MPS 9999 SCT043 24/12 Q1013 R13/0///65 NOSIG
  • 161200Z 00000MPS 9999 SCT046 24/12 Q1013 R13/0///65 NOSIG
  • 161130Z 00000MPS 9999 SCT046 24/12 Q1013 R13/0///65 NOSIG
  • 161100Z VRB01MPS 9999 SCT046 23/13 Q1013 R13/0///65 NOSIG
  • 161030Z VRB01MPS 9999 SCT043 24/13 Q1013 R13/0///65 NOSIG

TAF TAF UKWW
Valide du 16 à 12h jusqu'au 16 à 21h UTC


161101Z 1612/1621 VRB01MPS 9999 BKN020
TEMPO 1612/1615 4000 -SHRA BKN020CB
TEMPO 1615/1618 -TSRA BKN015CB



MET'MAP, la Météo Aéronautique d'un coup d'oeil ! - Copyright ORBIFLY Décembre 2007 - Disclaimer

ORBIFLY MET'MAP TEAM :

Programmation & Développement : Alexandra Zaïnal
Sur une idée originale de : Baudouin d'Aumeries
Assistance à la programmation : Marc-Olivier Méhu
Soutien technique & logistique : Manuel Goepfert

Contact : metmap@orbifly.com




SOURCES & CREDITS :

   NOAA